Tracking 31027 objects as of 19-Jul-2025
HD Live streaming from Space Station
objects crossing your sky now

STARLINK-11089

Track STARLINK-11089 now!
10-day predictions
STARLINK-11089 is classified as:


NORAD ID: 59426
Int'l Code: 2024-065F
Perigee: 366.0 km
Apogee: 367.8 km
Inclination: 53.2 °
Period: 91.7 minutes
Semi major axis: 6737 km
RCS: Unknown
Launch date: April 7, 2024
Source: United States (US)
Launch site: AIR FORCE WESTERN TEST RANGE (AFWTR)
Your satellite tracking list
COSMOS 1408 DEB
Track 1 satellite(s)




NASA's NSSDC Master Catalog

Two Line Element Set (TLE):
1 59426U 24065F   25199.34306903  .00000358  00000-0  78216-5 0  9992
2 59426  53.1597 169.3450 0001320  92.7852 267.3317 15.69695711 74713
Source of the keplerian elements: AFSPC